Terug naar catalogus

FENGYUN 1C DEB

ActiefSSO
NORAD 36743·DEBRIS·🇨🇳 China

Gelanceerd May 10, 1999 vanaf Taiyuan Satellite Launch Center

Loading…

Volgende Passages (komende 24 uur)

TLE

VerouderendSource: Space-Track

Epoch: Sep 9, 2026, 22:17 UTC

1 36743U 99025EBR 26252.92850553  .00001607  00000-0  62577-3 0  9996
2 36743  98.6348 304.2794 0045383 296.2558  63.3964 14.30587232646138

Volg FENGYUN 1C DEB in realtime met AllMySat

Download on the App Store